FENGYUN 1C DEB

Satellite information

Favourite Embed

Satellite Type and Status

DEBRISIN ORBIT

Key statistics

Satellite FENGYUN 1C DEB at a glance.

Uptime

9715

Days in orbit

Revolutions

≈ 14.2

Per day

Orbit

SSO

Sun Synchronous Orbit

Inclination

98.4

Latest

Satellite identification and parameters

Extended collection of information and parameters for FENGYUN 1C DEB.

Object identification

Identified? True

Debris? True

Object name: FENGYUN 1C DEB

International designator: 1999-025AMK

Object number (NORAD): 30604

Object ID (CCSDS): 30604

Country: PEOPLES REPUBLIC OF CHINA (PRC)

Current information (Y/N): Y

RCS size: SMALL

Orbital parameters

Period: 101.152 minutes

Inclination: 98.4028 deg

SMA: 7191.317 km

Apoapsis: 964.027 km

Periapsis: 662.337 km

RAAN: 20.4587 deg

Eccentricy: 0.02097596

Argument of periapsis: 10.2874 deg

Mean anomaly: 144.3112 deg

Mean motion: 14.23607049 rev/day

Mean motion (dot): 0.00001208 rev/day2

B* drag term: 0.00043839017 1/REarth

Two-line elements (TLE)

Creation date: Dec. 11, 2025, 7:14 p.m.

Reference frame: TEME

Reference center: EARTH

Epoch: Dec. 11, 2025, 1:40 p.m. UTC

TLE line 0: 0 FENGYUN 1C DEB

TLE line 1: 1 30604U 99025AMK 25345.56971760 .00001208 00000-0 43839-3 0 9999

TLE line 2: 2 30604 98.4028 20.4587 0209760 10.2874 144.3112 14.23607049978228

Live tracking on map

Real-time ground track for satellite FENGYUN 1C DEB.

In-orbit conjunctions

A list of the most updated potential collisions computed for object FENGYUN 1C DEB.

Target Orbit TCA Probability of collision Miss distance Type
COSMOS 1275 DEB LEO 2025-11-16 21:16:18 0.0001703937 45.0 (m) DEBRIS
CZ-6A DEB LEO 2025-04-19 06:48:12 0.0001375297 140.0 (m) DEBRIS
CZ-4B R/B SSO 2024-07-25 15:44:19 0.0001013464 996.0 (m) ROCKET BODY

Associated space launch

Chinese polar orbiting meteorological satellite

FENGYUN 1C DEB was lifted into orbit during the mission ‘Long March 4B | Feng Yun 1C’, on board a Long March 4B space rocket.

The launch took place on May 10, 1999, 1:33 a.m. from Launch Complex 7.

For more information about the launch, click the button.

Launch to space Long March 4B | Feng Yun 1C
Long March 4B | Feng Yun 1C

Agency: N/A

Status: Launch Successful

Launch date: May 10, 1999, 1:33 a.m. UTC

Rocket: Long March 4B

Launch pad: Launch Complex 7

Location: Taiyuan Satellite Launch Center, People's Republic of China

...

Latest news about this satellite

There are no fresh news available about this satellite. Check back as we update our databases every day.


Newsletter sign-up

Weekly statistics, charts and insights to help you stay on top of the space industry.